Regional Weather Roundup
Issued by NWS Green Bay, WI

Home | Current Version | Previous Version | Graphics & Text | Print | Product List | Glossary Off
Versions: 1 2 3 4 5 6 7 8 9 10 11 12 13 14 15 16 17 18 19 20 21 22 23 24 25 26 27 28 29 30 31 32 33 34 35 36 37 38 39 40 41 42 43 44 45 46 47 48 49 50

000
ASUS43 KGRB 300259
RWRGRB

NORTH-CENTRAL AND NORTHEAST WISCONSIN REGIONAL WEATHER ROUNDUP
NATIONAL WEATHER SERVICE GREEN BAY WI
900 PM CST THU JAN 29 2015

WIZ005-009-010>012-018-019-300400-
NORTH CENTRAL WISCONSIN

CITY           SKY/WX    TMP DP  RH WIND       PRES   REMARKS
IRONWOOD       CLOUDY    16   9  73 N15       30.34R WCI   1
MANITOWISH WTR NOT AVBL
ARBOR VITAE    NOT AVBL
EAGLE RIVER    NOT AVBL
LAND O LAKES   NOT AVBL
RHINELANDER    FLURRIES  16   7  67 NW12G23   30.28R WCI   3
PHILLIPS       NOT AVBL
ANTIGO         NOT AVBL
TOMAHAWK       NOT AVBL
MERRILL        NOT AVBL
$$

WIZ013-073-300400-
NORTHEAST WISCONSIN

CITY           SKY/WX    TMP DP  RH WIND       PRES   REMARKS
IRON MOUNTAIN  CLOUDY    17   6  62 N17G24    30.25R WCI   1
MARINETTE      PTCLDY    19   9  63 N10       30.28R WCI   8
$$

WIZ017-030-035>037-045-300400-
CENTRAL WISCONSIN

CITY           SKY/WX    TMP DP  RH WIND       PRES   REMARKS
MEDFORD        NOT AVBL
WAUSAU         LGT SNOW  20  14  77 NW12      30.29R WCI   8
MOSINEE        CLOUDY    21  14  73 NW16G24   30.31R WCI   7
MARSHFIELD     CLOUDY    21  10  62 NW21G28   30.32R WCI   5
WISC RAPIDS    CLOUDY    23  13  65 NW13G22   30.33R
STEVENS POINT  NOT AVBL
WAUPACA        NOT AVBL
SHAWANO        NOT AVBL
CLINTONVILLE   NOT AVBL
$$

WIZ038-039-048-051-300400-
FOX VALLEY

CITY           SKY/WX    TMP DP  RH WIND       PRES   REMARKS
NWS GREEN BAY  CLOUDY    24   9  52 N21G32    30.29R WCI   9
APPLETON       CLOUDY    25   9  50 N18G30    30.29R
OSHKOSH        CLOUDY    25  12  58 N18G25    30.28R
FOND DU LAC    CLOUDY    26  12  55 N17G23    30.28R
$$

WIZ022-050-052-300400-
EAST CENTRAL WISCONSIN

CITY           SKY/WX    TMP DP  RH WIND       PRES   REMARKS
STURGEON BAY   PTCLDY    19   9  63 N18       30.28R WCI   4
MANITOWOC      NOT AVBL
SHEBOYGAN      CLOUDY    26  15  63 N17       30.25R
$$

LMZ563-521-522-541>543-300400-
LAKESHORE

STATION/POSITION TIME  TEMP    WIND        PRES    VSBY  WAVE
                       AIR SEA DIR/SP/G                  HT/PER
                 (UTC) (F)     (DEG/KT/KT) (MB)    (MI)  (FT/S)
SHEBOYGAN LKSHOR 0200   28     360/ 25/ 28 1024.3R
KEWAUNEE LKSHORE 0200   23     350/ 13/ 21 1023.6R
NORTHPORT PIER   0200   20     330/ 21/ 33 1024.4R
SISTER BAY LKSHO 0200   19      20/ 25/ 32   N/A
CHAMBERS ISLAND  0200   19     320/ 17/ 23 1025.1R
MENOMINEE LKSHOR 0200   21     330/ 18     1025.5R
$$


USA.gov is the U.S. government's official web portal to all federal, state and local government web resources and services.